This is the latest recevied weather packets stored in our database for station/object 2E0RGX-13. If no packets are shown the sender has not sent any weather packets the latest 10 day(s).
| Time | Temp. | Humidity | Pressure | Rain* | Wind** | Luminosity | Snow |
|---|---|---|---|---|---|---|---|
| 1777479821 | 15.56° C | 39% | 1019.9 hPa | 0 mm | - | 1 W/m² | - |
| 1777479517 | 15.56° C | 39% | 1020.2 hPa | 0 mm | - | 1 W/m² | - |
| 1777479213 | 15.56° C | 40% | 1020.2 hPa | 0 mm | - | 1 W/m² | - |
| 1777478909 | 15.56° C | 40% | 1020.2 hPa | 0 mm | - | 1 W/m² | - |
| 1777478605 | 15.56° C | 41% | 1020.2 hPa | 0 mm | - | 1 W/m² | - |
| 1777478301 | 15.56° C | 40% | 1020.1 hPa | 0 mm | - | 1 W/m² | - |
| 1777477997 | 15.56° C | 40% | 1020.4 hPa | 0 mm | - | 1 W/m² | - |
| 1777477693 | 15.56° C | 40% | 1020.2 hPa | 0 mm | - | 2 W/m² | - |
| 1777477389 | 15.56° C | 41% | 1020.2 hPa | 0 mm | - | 2 W/m² | - |
| 1777477085 | 15.56° C | 41% | 1020.3 hPa | 0 mm | - | 2 W/m² | - |
| 1777476781 | 15.56° C | 41% | 1020.4 hPa | 0 mm | - | 2 W/m² | - |
| 1777476477 | 15.56° C | 40% | 1020.2 hPa | 0 mm | - | 2 W/m² | - |
| 1777476173 | 15.56° C | 41% | 1020.2 hPa | 0 mm | - | 2 W/m² | - |
| 1777475869 | 15.56° C | 40% | 1020.4 hPa | 0 mm | - | 2 W/m² | - |
| 1777475565 | 15.56° C | 40% | 1020.4 hPa | 0 mm | - | 2 W/m² | - |
| 1777475261 | 15.56° C | 41% | 1020.4 hPa | 0 mm | - | 2 W/m² | - |
| 1777473741 | 15.56° C | 40% | 1020.8 hPa | 0 mm | - | 3 W/m² | - |
| 1777473437 | 15.56° C | 39% | 1020.7 hPa | 0 mm | - | 3 W/m² | - |
| 1777473133 | 16.11° C | 39% | 1021 hPa | 0 mm | - | 3 W/m² | - |
| 1777471308 | 15.56° C | 41% | 1020.5 hPa | 0 mm | - | 2 W/m² | - |
| 1777469181 | 16.11° C | 39% | 1020.5 hPa | 0 mm | - | 3 W/m² | - |
| 1777468573 | 17.22° C | 36% | 1020.5 hPa | 0 mm | - | 3 W/m² | - |
| 1777467965 | 16.67° C | 36% | 1020.7 hPa | 0 mm | - | 3 W/m² | - |
| 1777465229 | 16.67° C | 35% | 1020.9 hPa | 0 mm | - | 4 W/m² | - |
| 1777464621 | 16.67° C | 34% | 1021 hPa | 0 mm | - | 5 W/m² | - |
* Rain latest hour (hover to see other rain measurements)
** Current wind speed in m/s (hover to see current wind gust speed)